FW4110 Weather Reports


Display with metric or nautical units.
time (UTC)temp
F
wind
direction
speed
MPH
gust
MPH
rain 1hr
in
rain 24hr
in
rain mn
in
humidity
%
barometer
mb
20260508083057 50 150 2.0 5.0 0.00 0.00 0.00 85 1015.3
20260508081611 50 166 1.0 3.0 0.00 0.00 0.00 84 1015.4
20260508080050 52 161 1.0 3.0 0.00 0.00 0.00 82 1015.3
20260508074549 52 149 1.0 3.0 0.00 0.00 0.00 80 1015.6
20260508073048 53 149 1.0 3.0 0.00 0.00 0.00 80 1015.5
20260508071545 53 147 1.0 3.0 0.00 0.00 0.00 79 1015.8
20260508070041 54 143 1.0 4.0 0.00 0.00 0.00 78 1015.8
20260508064540 54 173 1.0 4.0 0.00 0.00 0.00 77 1015.9
20260508063038 54 187 1.0 4.0 0.00 0.00 0.00 77 1016.2
20260508061534 54 147 1.0 2.0 0.00 0.00 0.00 76 1016.5
20260508060041 55 144 1.0 4.0 0.00 0.00 0.00 75 1016.5
20260508054607 55 158 1.0 3.0 0.00 0.00 0.00 75 1016.7
20260508053045 55 195 0.0 5.0 0.00 0.00 0.00 75 1016.7
20260508051530 56 147 0.0 4.0 0.00 0.00 0.00 75 1016.8
20260508050028 55 191 2.0 4.0 0.00 0.00 0.00 75 1016.7
20260508044529 55 171 0.0 3.0 0.00 0.00 0.00 75 1016.8
20260508043034 55 200 1.0 3.0 0.00 0.00 0.00 77 1016.8
20260508041525 54 184 1.0 3.0 0.00 0.00 0.00 78 1016.8
20260508040031 54 167 1.0 3.0 0.00 0.00 0.00 78 1016.8
20260508034534 54 170 2.0 4.0 0.00 0.00 0.00 78 1016.9
20260508033031 55 164 0.0 2.0 0.00 0.00 0.00 76 1016.9
20260508031523 56 155 1.0 3.0 0.00 0.00 0.00 75 1016.9
20260508030023 56 165 1.0 2.0 0.00 0.00 0.00 75 1016.9
20260508024525 56 168 1.0 2.0 0.00 0.00 0.00 75 1016.9
20260508023022 56 167 1.0 2.0 0.00 0.00 0.00 76 1016.8
20260508021521 55 186 0.0 2.0 0.00 0.00 0.00 76 1016.7
20260508020021 55 188 0.0 0.0 0.00 0.00 0.00 78 1016.4
20260508014523 55 187 0.0 0.0 0.00 0.00 0.00 78 1016.3
20260508013022 56 189 0.0 0.0 0.00 0.00 0.00 77 1016.1
20260508011521 58 189 0.0 1.0 0.00 0.00 0.00 74 1015.8
20260508010030 59 187 0.0 1.0 0.00 0.00 0.00 72 1015.8
20260508004525 62 184 0.0 1.0 0.00 0.00 0.00 69 1015.6
20260508003017 65 182 0.0 1.0 0.00 0.00 0.00 63 1015.3
20260508001516 66 172 0.0 4.0 0.00 0.00 0.00 61 1015.3
20260508000016 67 234 0.0 1.0 0.00 0.00 0.00 60 1015.3
20260507234514 67 270 0.0 3.0 0.00 0.00 0.00 59 1015.5
20260507233013 67 327 2.0 6.0 0.00 0.00 0.00 58 1015.7
20260507231513 67 302 0.0 6.0 0.00 0.00 0.00 57 1015.7
20260507230010 67 280 3.0 9.0 0.00 0.00 0.00 56 1016.0
20260507224513 67 166 3.0 7.0 0.00 0.00 0.00 55 1016.1
20260507223008 67 197 0.0 4.0 0.00 0.00 0.00 58 1016.4
20260507221510 68 268 3.0 14.0 0.00 0.00 0.00 56 1016.4
20260507220005 68 7 5.0 11.0 0.00 0.00 0.00 56 1016.3
20260507214504 68 344 3.0 13.0 0.00 0.00 0.00 55 1016.3
20260507213003 68 235 1.0 7.0 0.00 0.00 0.00 57 1016.4
20260507211606 67 320 0.0 10.0 0.00 0.00 0.00 57 1016.6
20260507210103 67 298 4.0 9.0 0.00 0.00 0.00 58 1016.8
20260507204554 66 360 5.0 9.0 0.00 0.00 0.00 57 1017.1
20260507203058 66 263 3.0 8.0 0.00 0.00 0.00 56 1017.5
20260507201552 66 287 3.0 8.0 0.00 0.00 0.00 56 1017.5
20260507200051 66 340 2.0 6.0 0.00 0.00 0.00 55 1017.7
20260507194550 66 350 2.0 11.0 0.00 0.00 0.00 55 1017.7
20260507193047 66 261 2.0 7.0 0.00 0.00 0.00 55 1017.8
20260507191546 66 10 5.0 12.0 0.00 0.00 0.00 56 1017.9
20260507190044 66 308 0.0 11.0 0.00 0.00 0.00 57 1018.0
20260507184544 66 358 0.0 9.0 0.00 0.00 0.00 57 1018.1
20260507183048 66 356 1.0 9.0 0.00 0.00 0.00 54 1018.4
20260507181542 65 282 1.0 8.0 0.00 0.00 0.00 55 1018.4
20260507180045 65 259 3.0 9.0 0.00 0.00 0.00 56 1018.7
20260507174535 64 9 3.0 10.0 0.00 0.00 0.00 55 1019.0
20260507173034 64 232 1.0 11.0 0.00 0.00 0.00 56 1019.1
20260507171531 63 237 1.0 8.0 0.00 0.00 0.00 58 1019.1
20260507170028 63 107 3.0 9.0 0.00 0.00 0.00 59 1019.4
20260507164528 63 206 2.0 10.0 0.00 0.00 0.00 59 1019.9
20260507163024 63 286 3.0 8.0 0.00 0.00 0.00 59 1020.0
20260507161532 62 275 2.0 8.0 0.00 0.00 0.00 59 1020.1
20260507160036 61 341 2.0 10.0 0.00 0.00 0.00 59 1020.4
20260507154519 61 261 3.0 8.0 0.00 0.00 0.00 60 1020.3
20260507153016 60 327 2.0 8.0 0.00 0.00 0.00 65 1020.6
20260507151515 59 272 1.0 6.0 0.00 0.00 0.00 67 1020.4
20260507150015 59 314 3.0 7.0 0.00 0.00 0.00 69 1020.7
20260507144516 58 310 2.0 6.0 0.00 0.00 0.00 69 1020.9
20260507143011 57 153 1.0 6.0 0.00 0.00 0.00 72 1020.9
20260507141513 56 235 1.0 4.0 0.00 0.00 0.00 48 1021.0
20260507140108 55 313 0.0 2.0 0.00 0.00 0.00 55 1021.0
20260507134555 53 261 0.0 4.0 0.00 0.00 0.00 60 1021.1
20260507133055 51 258 0.0 2.0 0.00 0.00 0.00 60 1020.9
20260507131549 50 223 0.0 0.0 0.00 0.00 0.00 72 1020.9
20260507130056 47 266 0.0 0.0 0.00 0.00 0.00 78 1021.0
20260507124556 44 308 0.0 2.0 0.00 0.00 0.00 85 1021.1
20260507123036 42 230 0.0 1.0 0.00 0.00 0.00 88 1021.0
20260507121536 40 45 0.0 0.0 0.00 0.00 0.00 87 1021.0
20260507120030 0 0.0 0.0 0.00 0.00 0.00 1020.8
20260507114529 0 0.0 0.0 0.00 0.00 0.00 1020.6
20260507113023 0 0.0 0.0 0.00 0.00 0.00 1020.5
20260507111518 0 45 0.0 0.0 0.00 0.00 0.00 1020.4
20260507110025 37 46 0.0 0.0 0.00 0.00 0.00 85 1020.4
20260507104514 38 46 0.0 0.0 0.00 0.02 0.00 85 1020.3
20260507103013 38 46 0.0 0.0 0.00 0.02 0.00 85 1020.1
20260507101511 39 45 0.0 0.0 0.00 0.02 0.00 84 1020.0
20260507100016 39 46 0.0 0.0 0.00 0.02 0.00 83 1020.0
20260507094508 39 45 0.0 0.0 0.00 0.04 0.00 83 1020.0
20260507093006 39 46 0.0 0.0 0.00 0.04 0.00 80 1019.8
20260507091506 39 46 0.0 0.0 0.00 0.04 0.00 69 1019.8
20260507090006 39 46 0.0 0.0 0.00 0.04 0.00 66 1020.0
20260507084600 40 46 0.0 0.0 0.00 0.06 0.00 64 1020.2